Home   Weather   Ulyanovsk   Past weeks

Flag for Russia Past Weather in Ulyanovsk, Russia — Yesterday and Last 2 Weeks

Now
19 °F

Light snow. Overcast.


Feels Like: 7 °F
Forecast: 10 / 20 °F
Wind: 13 mph from Northwest

Location: Ulyanovsk Vostochny Airport

Current Time: Jan 22, 2017 at 10:34:14 pm

Latest Report: Jan 22, 2017 at 10:00 pm


Visibility: 5 mi

Pressure: 29.68 "Hg

Humidity: 73%

Dew Point: 12 °F

Location of UlyanovskLocation

Past Weather in Ulyanovsk — Graph

°F

Ulyanovsk Temperature Yesterday

Maximum temperature yesterday: 25 °F (at 12:00 am)
Minimum temperature yesterday: 12 °F (at 9:00 am)
Average temperature yesterday: 19 °F

High & Low Weather Summary for the Past Weeks

 TemperatureHumidityPressure
High28 °F (Jan 20, 4:00 pm)100% (Jan 12, 7:00 am)30.51 "Hg (Jan 12, 7:00 am)
Low-9 °F (Jan 9, 1:00 am)63% (Jan 21, 3:00 am)29.53 "Hg (Jan 21, 3:00 pm)
Average12 °F83%30.17 "Hg
* Reported Jan 7 9:00 pm — Jan 22 9:00 pm, Ulyanovsk, Weather by CustomWeather, © 2017

Note: Actual official high and low records may vary slightly from our data, if they occured in-between our weather recording intervals... More about our weather records

Advertising

Ulyanovsk Weather History for the Previous 24 Hours

Scroll right to see more
 ConditionsComfort  
Time TempWeatherWind HumidityBarometerVisibility
9:00 pm
Sun, Jan 22
18 °FLight snow. Overcast.15 mph79%29.68 "Hg5 mi
8:00 pm18 °FLight snow. Overcast.13 mph79%29.68 "Hg5 mi
7:00 pm18 °FLight snow. Passing clouds.15 mph79%29.68 "Hg5 mi
6:00 pm18 °FLight snow. Partly sunny.15 mph79%29.68 "Hg3 mi
5:00 pm16 °FScattered clouds.10 mph79%29.68 "Hg5 mi
4:00 pm18 °FLight snow. Partly sunny.10 mph79%29.68 "Hg3 mi
3:00 pm19 °FLight snow. Partly sunny.10 mph73%29.68 "Hg3 mi
2:00 pm19 °FLight snow. Overcast.10 mph73%29.68 "Hg3 mi
1:00 pm19 °FLight snow. Partly sunny.15 mph68%29.68 "Hg5 mi
12:00 pm19 °FScattered clouds.15 mph73%29.68 "Hg5 mi
11:00 am18 °FLight snow. Overcast.15 mph79%29.68 "Hg2 mi
10:00 am18 °FLight snow. Overcast.10 mph86%29.65 "Hg5 mi
9:00 am19 °FLight snow. Overcast.10 mph79%29.65 "Hg3 mi
8:00 am19 °FLight snow. Overcast.13 mph79%29.65 "Hg5 mi
7:00 am19 °FLight snow. Overcast.10 mph79%29.65 "Hg5 mi
6:00 am19 °FLight snow. Overcast.10 mph79%29.62 "Hg3 mi
5:00 am19 °FLight snow. Overcast.10 mph79%29.62 "Hg5 mi
4:00 am19 °FOvercast.13 mph79%29.62 "Hg5 mi
3:00 am19 °FOvercast.10 mph79%29.62 "Hg5 mi
2:00 am19 °FOvercast.6 mph79%29.62 "Hg5 mi
1:00 am19 °FOvercast.8 mph79%29.62 "Hg5 mi
12:00 am19 °FOvercast.10 mph73%29.62 "Hg5 mi
11:00 pm
Sat, Jan 21
19 °FOvercast.8 mph73%29.62 "Hg5 mi
10:00 pm19 °FOvercast.10 mph73%29.59 "Hg5 mi
Weather by CustomWeather, © 2017

See weather overviewHow to use our weather pages